HJS-7D

基本信息
目录编号:
65620
目录名称:
HJS-7D
国际标识:
2025-209D
轨道中心:
EARTH
卫星名称:
HJS-7D
卫星全名:
HJS-7D
卫星状态:
在轨 (已飞行36 天)
发射日期:
2025-09-16 UTC
国别 :
中国 (CN)
星等 :
--
轨道信息
数据来源 国际轨道数据
星历时间: 2025-10-17T01:54:20+0800
5天前
查看轨道信息
半长轴: 7189.093km
偏心率: 0.0001021
轨道倾角: 49.999°
近地点辐角 307.939°
升交点赤经 209.699°
平近点角 52.143°
近地点: 810.223km
远地点: 811.693km
周期: 101.105分钟
每日圈数: 14.242678
详细信息
使用方式:
暂无
2D轨道图
3D轨道图
轨道高度分析图
轨道倾角分析图
轨道综合分析图
查看轨道综合分析图